Starlink 34224

operational
NORAD ID: 64251 Int'l Des: 2025-119 Owner: SPXS Country: US Constellation: starlink
LEOCIRCULAR

Über Starlink 34224

Beschreibung wird geladen...

Live-Position

3D-Globus wird geladen...

Nächste Überflüge

Höhenverlauf

Altitude vs Time

uPlot chart will show altitude changes over time

Zweizeiliger Elementsatz

1 64251U 25119U 26095.44254644 .00023848 00000-0 87323-3 0 9992
2 64251 42.9977 155.7190 0000329 219.3651 140.7177 15.27583254 48266
Epoch: 5. Apr. 2026 • Age: 11 hours

Aktueller Status

Höhe 485.2 km
Geschwindigkeit 7.62 km/s
Subsatellitenpunkt -12.10°S, 17.19°W
Startdatum 3. Juni 2025
Alter 0.8 years
Typ internet

Technische Details

Klassifizierung Payload
Masse 575.00 kg
Trockenmasse 530.00 kg
Gesamtmasse 575.00 kg
Länge 0.30 m
Durchmesser 4.10 m
Spannweite 29.00 m
Form Box + pan
Hersteller SPXS
Bus-Typ Starlink V2MO
Phasenstatus In Orbit
Besitzer/Staat SPXS/US

Große Konstellationen

Loading constellations...